Los Angeles International Airport Los Angeles US
ICAO: KLAX
IATA: LAX
Category: Large
Scheduled Services: Yes

Elevation: 125 ft
TransAlt. 18000 ft.

Airport Communications:
SOCAL APP:36.07
SOCAL APP:124.3
ATIS:133.8
CLNC DEL:120.35
SOCAL DEP:124.3
GND:121.65
CG:34.5
CG:898.4
AF:37.22
TWR:119.8
UNICOM:122.95

KLAX Zoom In..

If you have problems with the map follow the link
https://www.worldairports.se/pages/airport.php?
ICAO=KLAX

Runways:

(A) RW 06L length 8925 ft width 150 ft
ILS 108.50 / hdg 69

(B) RW 06R length 10285 ft width 150 ft
ILS 111.70 / hdg 69

(C) RW 07L length 12091 ft width 150 ft
ILS 111.10 / hdg 69

(D) RW 07R length 11095 ft width 200 ft
ILS 109.90 / hdg 69

(E) RW 24L length 10285 ft width 150 ft
ILS 111.70 / hdg 249

(F) RW 24R length 8925 ft width 150 ft
ILS 108.50 / hdg 249

(G) RW 25L length 11095 ft width 200 ft
ILS 109.90 / hdg 249

(H) RW 25R length 12091 ft width 150 ft
ILS 111.10 / hdg 249

Location; KLAX
Day. 19 / Time. 00.53 Zulu
* Altimeter: 30.12
* Temperature: 18° c. 64.4°f.
* Wind from: 310° Speed 07 kn.
Dewpoint: 07° c.
Visibility: 10 Statute Miles.
Clouds: Scattered 2000 ft.
Clouds: Broken 25000 ft.

KLAX 190053Z 31007KT 10SM SCT200 BKN250 18/07 A3012 RMK AO2 SLP200 T01780067


Wind From 310°
Speed 07 kn.

 
 
jpsmedia worldairports.se 2020   terms of use